Previsão horária em Centrum

Hoje, 30 Julho, Sexta-feira

Tempo Temperatura Precipitação Vento Pressão Humidade
00:00 +16°C° 0 mm 1 m/s 714 mmHg 74%
01:00 +16°C° 0 mm 1 m/s 714 mmHg 74%
02:00 +16°C° 0 mm 1 m/s 714 mmHg 75%
03:00 +16°C° 0 mm 1 m/s 714 mmHg 75%
04:00 +15°C° 0 mm 1 m/s 714 mmHg 76%
05:00 +18°C° 0 mm 1 m/s 714 mmHg 72%
06:00 +20°C° 0 mm 1 m/s 714 mmHg 69%
07:00 +21°C° 0 mm 1 m/s 714 mmHg 65%
08:00 +23°C° 0 mm 1 m/s 714 mmHg 60%
09:00 +25°C° 0 mm 2 m/s 714 mmHg 55%
10:00 +26°C° 0 mm 2 m/s 714 mmHg 50%
11:00 +27°C° 0 mm 2 m/s 714 mmHg 50%
12:00 +27°C° 0 mm 3 m/s 714 mmHg 50%
13:00 +28°C° 0 mm 3 m/s 713 mmHg 50%
14:00 +28°C° 0 mm 3 m/s 713 mmHg 51%
15:00 +28°C° 0 mm 2 m/s 713 mmHg 52%
16:00 +28°C° 0 mm 2 m/s 713 mmHg 52%
17:00 +26°C° 0 mm 2 m/s 713 mmHg 60%
18:00 +25°C° 0 mm 1 m/s 712 mmHg 67%
19:00 +23°C° 0 mm 1 m/s 712 mmHg 75%
20:00 +22°C° 0 mm 1 m/s 712 mmHg 77%
21:00 +21°C° 0 mm 1 m/s 712 mmHg 79%
22:00 +20°C° 0 mm 1 m/s 712 mmHg 81%
23:00 +20°C° 0 mm 1 m/s 712 mmHg 82%

Amanhã, 31 Julho, Sábado

Tempo Temperatura Precipitação Vento Pressão Humidade
00:00 +19°C° 0 mm 1 m/s 712 mmHg 82%
01:00 +19°C° 0 mm 1 m/s 712 mmHg 82%
02:00 +19°C° 0 mm 1 m/s 711 mmHg 82%
03:00 +19°C° 0 mm 1 m/s 711 mmHg 82%
04:00 +18°C° 0 mm 1 m/s 711 mmHg 82%
05:00 +20°C° 0 mm 1 m/s 711 mmHg 78%
06:00 +21°C° 0 mm 1 m/s 711 mmHg 74%
07:00 +21°C° 0 mm 0 m/s 711 mmHg 71%
08:00 +23°C° 0.1 mm 1 m/s 711 mmHg 70%
09:00 +24°C° 0.1 mm 1 m/s 711 mmHg 70%
10:00 +25°C° 0.1 mm 2 m/s 711 mmHg 69%
11:00 +23°C° 1.4 mm 2 m/s 711 mmHg 78%
12:00 +20°C° 1.4 mm 2 m/s 711 mmHg 86%
13:00 +19°C° 1.4 mm 2 m/s 711 mmHg 95%
14:00 +19°C° 1.1 mm 2 m/s 711 mmHg 94%
15:00 +19°C° 1.1 mm 1 m/s 712 mmHg 94%
16:00 +19°C° 1.1 mm 1 m/s 712 mmHg 94%
17:00 +19°C° 0 mm 1 m/s 712 mmHg 94%
18:00 +19°C° 0 mm 1 m/s 712 mmHg 94%
19:00 +19°C° 0 mm 1 m/s 712 mmHg 93%
20:00 +18°C° 0 mm 1 m/s 712 mmHg 93%
21:00 +18°C° 0 mm 1 m/s 712 mmHg 93%
22:00 +16°C° 0 mm 2 m/s 712 mmHg 93%
23:00 +16°C° 0 mm 1 m/s 712 mmHg 91%

Depois de amanhã, 1 Agosto, Domingo

Tempo Temperatura Precipitação Vento Pressão Humidade
00:00 +16°C° 0 mm 1 m/s 712 mmHg 90%
01:00 +16°C° 0 mm 1 m/s 712 mmHg 88%
02:00 +16°C° 0 mm 1 m/s 712 mmHg 88%
03:00 +15°C° 0 mm 1 m/s 712 mmHg 89%
04:00 +15°C° 0 mm 1 m/s 711 mmHg 89%
05:00 +16°C° 0.1 mm 1 m/s 711 mmHg 86%
06:00 +19°C° 0.1 mm 1 m/s 711 mmHg 83%
07:00 +20°C° 0.1 mm 1 m/s 711 mmHg 80%
08:00 +21°C° 0.2 mm 1 m/s 711 mmHg 77%
09:00 +22°C° 0.2 mm 1 m/s 711 mmHg 74%
10:00 +23°C° 0.2 mm 1 m/s 711 mmHg 71%
11:00 +25°C° 0.2 mm 1 m/s 710 mmHg 66%
12:00 +26°C° 0.2 mm 1 m/s 710 mmHg 61%
13:00 +28°C° 0.2 mm 2 m/s 710 mmHg 56%
14:00 +26°C° 0.8 mm 2 m/s 710 mmHg 65%
15:00 +24°C° 0.8 mm 2 m/s 709 mmHg 75%
16:00 +23°C° 0.8 mm 2 m/s 709 mmHg 84%
17:00 +20°C° 1 mm 2 m/s 709 mmHg 88%
18:00 +19°C° 1 mm 2 m/s 710 mmHg 92%
19:00 +17°C° 1 mm 2 m/s 710 mmHg 96%
20:00 +17°C° 0.6 mm 2 m/s 710 mmHg 97%
21:00 +16°C° 0.6 mm 1 m/s 710 mmHg 97%
22:00 +16°C° 0.6 mm 1 m/s 711 mmHg 97%
23:00 +15°C° 0.1 mm 1 m/s 711 mmHg 97%

2 Agosto, Segunda-feira

Tempo Temperatura Precipitação Vento Pressão Humidade
00:00 +15°C° 0.1 mm 1 m/s 711 mmHg 97%
01:00 +15°C° 0.1 mm 2 m/s 711 mmHg 97%
02:00 +14°C° 0.3 mm 1 m/s 711 mmHg 97%
03:00 +14°C° 0.3 mm 1 m/s 711 mmHg 97%
04:00 +14°C° 0.3 mm 1 m/s 712 mmHg 97%
05:00 +15°C° 0 mm 1 m/s 712 mmHg 93%
06:00 +15°C° 0 mm 1 m/s 712 mmHg 90%
07:00 +16°C° 0 mm 1 m/s 712 mmHg 86%
08:00 +17°C° 0 mm 2 m/s 713 mmHg 76%
09:00 +19°C° 0 mm 2 m/s 713 mmHg 66%
10:00 +21°C° 0 mm 2 m/s 714 mmHg 56%
11:00 +21°C° 0 mm 3 m/s 714 mmHg 55%
12:00 +22°C° 0 mm 3 m/s 714 mmHg 53%
13:00 +22°C° 0 mm 3 m/s 714 mmHg 51%
14:00 +22°C° 0 mm 3 m/s 714 mmHg 54%
15:00 +22°C° 0 mm 3 m/s 714 mmHg 57%
16:00 +23°C° 0 mm 2 m/s 714 mmHg 60%
17:00 +20°C° 0.1 mm 2 m/s 714 mmHg 66%
18:00 +19°C° 0.1 mm 2 m/s 714 mmHg 71%
19:00 +18°C° 0.1 mm 1 m/s 714 mmHg 77%
20:00 +16°C° 0 mm 1 m/s 714 mmHg 79%
21:00 +15°C° 0 mm 1 m/s 714 mmHg 81%
22:00 +15°C° 0 mm 2 m/s 715 mmHg 83%
23:00 +14°C° 0 mm 2 m/s 715 mmHg 85%

3 Agosto, Terça-feira

Tempo Temperatura Precipitação Vento Pressão Humidade
00:00 +14°C° 0 mm 1 m/s 715 mmHg 86%
01:00 +13°C° 0 mm 1 m/s 715 mmHg 87%
02:00 +13°C° 0 mm 1 m/s 715 mmHg 88%
03:00 +13°C° 0 mm 1 m/s 715 mmHg 89%
04:00 +12°C° 0 mm 1 m/s 715 mmHg 91%
05:00 +14°C° 0 mm 1 m/s 716 mmHg 85%
06:00 +15°C° 0 mm 1 m/s 716 mmHg 80%
07:00 +16°C° 0 mm 0 m/s 717 mmHg 75%
08:00 +20°C° 0 mm 1 m/s 717 mmHg 68%
09:00 +21°C° 0 mm 1 m/s 717 mmHg 61%
10:00 +23°C° 0 mm 1 m/s 717 mmHg 54%
11:00 +23°C° 0.1 mm 1 m/s 717 mmHg 52%
12:00 +24°C° 0.1 mm 2 m/s 716 mmHg 50%
13:00 +25°C° 0.1 mm 2 m/s 716 mmHg 48%
14:00 +25°C° 0 mm 2 m/s 716 mmHg 49%
15:00 +25°C° 0 mm 1 m/s 716 mmHg 49%
16:00 +25°C° 0 mm 1 m/s 715 mmHg 49%
17:00 +23°C° 0 mm 1 m/s 715 mmHg 59%
18:00 +21°C° 0 mm 1 m/s 715 mmHg 70%
19:00 +19°C° 0 mm 1 m/s 715 mmHg 80%
20:00 +18°C° 0 mm 1 m/s 715 mmHg 82%
21:00 +16°C° 0 mm 1 m/s 715 mmHg 84%
22:00 +15°C° 0 mm 2 m/s 714 mmHg 86%
23:00 +15°C° 0.1 mm 2 m/s 714 mmHg 87%

4 Agosto, Quarta-feira

Tempo Temperatura Precipitação Vento Pressão Humidade
00:00 +15°C° 0.1 mm 2 m/s 714 mmHg 88%
01:00 +15°C° 0.1 mm 2 m/s 714 mmHg 89%
02:00 +15°C° 0.1 mm 2 m/s 714 mmHg 89%
03:00 +15°C° 0.1 mm 1 m/s 714 mmHg 89%
04:00 +15°C° 0.1 mm 1 m/s 714 mmHg 89%
05:00 +16°C° 0 mm 1 m/s 714 mmHg 88%
06:00 +16°C° 0 mm 1 m/s 714 mmHg 87%
07:00 +18°C° 0 mm 1 m/s 714 mmHg 86%
08:00 +18°C° 0.3 mm 1 m/s 714 mmHg 87%
09:00 +18°C° 0.3 mm 1 m/s 714 mmHg 88%
10:00 +19°C° 0.3 mm 1 m/s 714 mmHg 89%
11:00 +19°C° 0.8 mm 1 m/s 714 mmHg 90%
12:00 +19°C° 0.8 mm 1 m/s 714 mmHg 91%
13:00 +19°C° 0.8 mm 1 m/s 714 mmHg 92%
14:00 +18°C° 0.3 mm 2 m/s 714 mmHg 89%
15:00 +19°C° 0.3 mm 2 m/s 714 mmHg 86%
16:00 +19°C° 0.3 mm 2 m/s 714 mmHg 84%
17:00 +18°C° 0 mm 2 m/s 714 mmHg 88%
18:00 +17°C° 0 mm 2 m/s 714 mmHg 91%
19:00 +16°C° 0 mm 1 m/s 713 mmHg 95%
20:00 +16°C° 0 mm 1 m/s 713 mmHg 96%
21:00 +16°C° 0 mm 1 m/s 714 mmHg 96%
22:00 +15°C° 0 mm 1 m/s 714 mmHg 97%
23:00 +15°C° 0 mm 1 m/s 714 mmHg 97%
Mostrar mais

Necessitamos do seu Consentimento

A Meteoprog e os seus Fornecedores de Serviços podem armazenar e aceder a dados pessoais como cookies, identificadores do dispositivo ou outras tecnologias semelhantes existentes no seu dispositivo e processar estes dados para personalizar conteúdos e anúncios, assim como funcionalidades nas redes sociais e análise de tráfego.

  • Armazenar e/ou aceder a informações no seu dispositivo

    Os cookies, identificadores do dispositivo ou outras informações podem ser armazenados ou acedidos no seu dispositivo, para os fins acima indicados.

  • Anúncios e conteúdos personalizados, medição de anúncios e conteúdos, dados sobre o público-alvo e desenvolvimento de produtos

    Os anúncios e os conteúdos podem ser personalizados com base num perfil. Podem ser adicionados dados adicionais para uma maior personalização dos anúncios e dos conteúdos. A eficácia dos anúncios e dos conteúdos pode ser medida. Podem ser obtidas informações sobre o público que visualizou os anúncios e os conteúdos. Estes dados podem ser usados para desenvolver ou melhorar sistemas, softwares ou a experiência do utilizador.

Ao clicar em "Eu concordo”, permitirá o uso de cookies, identificadores do dispositivo e web beacons mencionados ou outras tecnologias semelhantes. As configurações do navegador do seu dispositivo podem ser alteradas.

Para certos fins, podem ser invocados interesses legítimos ao invés de consentimento. Pode ler mais informação sobre este assunto na nossa Política de Privacidade e Cookies.